Rockland, ME

4:30 AM EST on January 21, 2018 (GMT -0500)
Knox County Regional

Weather History for KRKD - October, 2014

Change the Weather History Date:

Monday, October 27, 2014

  Actual Average Record
Temperature  
Mean Temperature 48 °F -  
Max Temperature 55 °F 49 °F 62 °F (2010)
Min Temperature 42 °F 36 °F 25 °F (2015)
Degree Days  
Heating Degree Days 16    
Moisture  
Dew Point 37 °F    
Average Humidity 67    
Maximum Humidity 81    
Minimum Humidity 51    
Precipitation  
Precipitation 0.00 in - - ()
Sea Level Pressure  
Sea Level Pressure 29.74 in    
Wind  
Wind Speed 12 mph (West)    
Max Wind Speed 25 mph    
Max Gust Speed 34 mph    
Visibility 10 miles    
Events      
Averages and records for this station are not official NWS values.
T = Trace of Precipitation, MM = Missing Value Source: NWS Daily Summary

Daily Weather History Graph

Daily Weather History Graph

Search for Another Location

Airport or City:

Trip Planner

Search our weather history database for the weather conditions in past years. The results will help you decide how hot, cold, wet, or windy it might be!

Date:

Astronomy

Oct. 27, 2014 Rise Set
Actual Time 7:06 AM EDT 5:33 PM EDT
Civil Twilight 6:36 AM EDT 6:03 PM EDT
Nautical Twilight 6:02 AM EDT 6:37 PM EDT
Astronomical Twilight 5:29 AM EDT 7:10 PM EDT
Moon 10:42 AM EDT (10/27) 8:32 PM EDT (10/27)
Length of Visible Light 11h 26m
Length of Day
10h 27m
Waxing Crescent, 15% of the Moon is Illuminated
Oct 27
Waxing Crescent
Oct 30
First Quarter
Nov 6
Full
Nov 14
Last Quarter
Nov 22
New

Hourly Weather History & Observations

Time (EDT) Temp. Windchill Dew Point Humidity Pressure Visibility Wind Dir Wind Speed Gust Speed Precip Events Conditions
12:15 AM 44.6 °F 38.8 °F 37.4 °F 76% 29.56 in 10.0 mi West 11.5 mph - N/A   Clear
12:35 AM 44.6 °F 39.2 °F 37.4 °F 76% 29.56 in 10.0 mi West 10.4 mph - N/A   Clear
12:55 AM 44.6 °F 38.8 °F 37.4 °F 76% 29.56 in 10.0 mi West 11.5 mph - N/A   Clear
1:15 AM 44.6 °F 38.8 °F 37.4 °F 76% 29.57 in 10.0 mi West 11.5 mph - N/A   Clear
1:35 AM 44.6 °F 39.7 °F 37.4 °F 76% 29.57 in 10.0 mi West 9.2 mph - N/A   Clear
1:55 AM 42.8 °F 37.5 °F 37.4 °F 81% 29.58 in 10.0 mi West 9.2 mph - N/A   Clear
2:15 AM 42.8 °F 37.5 °F 35.6 °F 76% 29.57 in 10.0 mi West 9.2 mph - N/A   Clear
2:35 AM 42.8 °F 36.6 °F 37.4 °F 81% 29.58 in 10.0 mi West 11.5 mph - N/A   Clear
2:55 AM 42.8 °F 37.0 °F 37.4 °F 81% 29.58 in 10.0 mi WSW 10.4 mph - N/A   Clear
3:15 AM 42.8 °F 37.0 °F 35.6 °F 76% 29.59 in 10.0 mi West 10.4 mph - N/A   Clear
3:35 AM 42.8 °F 37.5 °F 37.4 °F 81% 29.60 in 10.0 mi WSW 9.2 mph - N/A   Clear
3:55 AM 42.8 °F 38.0 °F 35.6 °F 76% 29.60 in 10.0 mi West 8.1 mph - N/A   Clear
4:15 AM 42.8 °F 37.5 °F 35.6 °F 76% 29.61 in 10.0 mi West 9.2 mph - N/A   Clear
4:35 AM 42.8 °F - 37.4 °F 81% 29.62 in 10.0 mi Calm Calm - N/A   Clear
4:55 AM 42.8 °F 38.0 °F 35.6 °F 76% 29.62 in 10.0 mi West 8.1 mph - N/A   Clear
5:15 AM 42.8 °F 41.1 °F 37.4 °F 81% 29.63 in 10.0 mi WSW 3.5 mph - N/A   Partly Cloudy
5:35 AM 42.8 °F 37.5 °F 37.4 °F 81% 29.63 in 10.0 mi West 9.2 mph - N/A   Partly Cloudy
5:55 AM 42.8 °F 39.3 °F 37.4 °F 81% 29.64 in 10.0 mi WSW 5.8 mph - N/A   Clear
6:15 AM 42.8 °F 38.6 °F 35.6 °F 76% 29.64 in 10.0 mi WSW 6.9 mph - N/A   Clear
6:35 AM 42.8 °F 38.0 °F 37.4 °F 81% 29.65 in 10.0 mi West 8.1 mph - N/A   Clear
6:55 AM 42.8 °F 37.5 °F 37.4 °F 81% 29.66 in 10.0 mi West 9.2 mph - N/A   Clear
7:15 AM 42.8 °F 36.6 °F 37.4 °F 81% 29.67 in 10.0 mi West 11.5 mph - N/A   Clear
7:35 AM 42.8 °F 36.2 °F 37.4 °F 81% 29.67 in 10.0 mi West 12.7 mph - N/A   Clear
7:55 AM 44.6 °F 37.8 °F 37.4 °F 76% 29.68 in 10.0 mi West 15.0 mph - N/A   Clear
8:15 AM 46.4 °F 39.8 °F 37.4 °F 71% 29.69 in 10.0 mi West 16.1 mph - N/A   Clear
8:35 AM 46.4 °F 40.7 °F 37.4 °F 71% 29.70 in 10.0 mi West 12.7 mph - N/A   Clear
8:55 AM 48.2 °F - 37.4 °F 66% 29.70 in 10.0 mi West 15.0 mph - N/A   Clear
9:15 AM 48.2 °F - 37.4 °F 66% 29.70 in 10.0 mi West 17.3 mph - N/A   Clear
9:35 AM 50.0 °F - 39.2 °F 66% 29.71 in 10.0 mi West 18.4 mph - N/A   Clear
9:55 AM 51.8 °F - 39.2 °F 62% 29.71 in 10.0 mi West 21.9 mph - N/A   Clear
10:15 AM 51.8 °F - 37.4 °F 58% 29.71 in 10.0 mi West 16.1 mph 26.5 mph N/A   Clear
10:35 AM 53.6 °F - 37.4 °F 54% 29.72 in 10.0 mi WNW 13.8 mph 28.8 mph N/A   Clear
10:55 AM 53.6 °F - 37.4 °F 54% 29.73 in 10.0 mi West 20.7 mph 31.1 mph N/A   Clear
11:15 AM 53.6 °F - 37.4 °F 54% 29.74 in 10.0 mi WNW 16.1 mph 23.0 mph N/A   Scattered Clouds
11:35 AM 55.4 °F - 37.4 °F 51% 29.74 in 10.0 mi West 25.3 mph 32.2 mph N/A   Mostly Cloudy
11:55 AM 53.6 °F - 37.4 °F 54% 29.75 in 10.0 mi WNW 21.9 mph 33.4 mph N/A   Overcast
12:15 PM 55.4 °F - 39.2 °F 54% 29.74 in 10.0 mi West 12.7 mph 28.8 mph N/A   Overcast
12:35 PM 55.4 °F - 37.4 °F 51% 29.74 in 10.0 mi WNW 16.1 mph 29.9 mph N/A   Mostly Cloudy
12:55 PM 53.6 °F - 37.4 °F 54% 29.73 in 10.0 mi West 24.2 mph 34.5 mph N/A   Mostly Cloudy
1:15 PM 55.4 °F - 37.4 °F 51% 29.73 in 10.0 mi WNW 18.4 mph 29.9 mph N/A   Scattered Clouds
1:35 PM 55.4 °F - 37.4 °F 51% 29.73 in 10.0 mi West 18.4 mph 31.1 mph N/A   Mostly Cloudy
1:55 PM 55.4 °F - 37.4 °F 51% 29.74 in 10.0 mi WNW 18.4 mph 25.3 mph N/A   Mostly Cloudy
2:15 PM 55.4 °F - 37.4 °F 51% 29.74 in 10.0 mi WNW 16.1 mph 28.8 mph N/A   Mostly Cloudy
2:35 PM 55.4 °F - 37.4 °F 51% 29.75 in 10.0 mi WNW 12.7 mph 28.8 mph N/A   Scattered Clouds
2:55 PM 55.4 °F - 37.4 °F 51% 29.75 in 10.0 mi WNW 15.0 mph 26.5 mph N/A   Partly Cloudy
3:15 PM 53.6 °F - 37.4 °F 54% 29.76 in 10.0 mi West 21.9 mph 25.3 mph N/A   Partly Cloudy
3:35 PM 53.6 °F - 37.4 °F 54% 29.77 in 10.0 mi West 10.4 mph 20.7 mph N/A   Mostly Cloudy
3:55 PM 53.6 °F - 37.4 °F 54% 29.78 in 10.0 mi West 12.7 mph 24.2 mph N/A   Overcast
4:15 PM 55.4 °F - 37.4 °F 51% 29.78 in 10.0 mi West 13.8 mph 21.9 mph N/A   Overcast
4:35 PM 55.4 °F - 37.4 °F 51% 29.79 in 10.0 mi West 16.1 mph 19.6 mph N/A   Overcast
4:55 PM 53.6 °F - 37.4 °F 54% 29.79 in 10.0 mi West 13.8 mph 20.7 mph N/A   Overcast
5:15 PM 53.6 °F - 37.4 °F 54% 29.80 in 10.0 mi West 20.7 mph 25.3 mph N/A   Mostly Cloudy
5:35 PM 51.8 °F - 37.4 °F 58% 29.82 in 10.0 mi West 13.8 mph - N/A   Scattered Clouds
5:55 PM 51.8 °F - 35.6 °F 54% 29.82 in 10.0 mi West 17.3 mph 23.0 mph N/A   Mostly Cloudy
6:15 PM 51.8 °F - 37.4 °F 58% 29.85 in 10.0 mi West 11.5 mph 19.6 mph N/A   Scattered Clouds
6:35 PM 50.0 °F - 37.4 °F 62% 29.86 in 10.0 mi West 12.7 mph - N/A   Mostly Cloudy
6:55 PM 50.0 °F - 37.4 °F 62% 29.88 in 10.0 mi West 10.4 mph 16.1 mph N/A   Scattered Clouds
7:15 PM 48.2 °F - 37.4 °F 66% 29.90 in 10.0 mi West 9.2 mph - N/A   Scattered Clouds
7:35 PM 48.2 °F - 37.4 °F 66% 29.90 in 10.0 mi West 11.5 mph - N/A   Scattered Clouds
7:55 PM 48.2 °F - 37.4 °F 66% 29.90 in 10.0 mi West 10.4 mph 16.1 mph N/A   Partly Cloudy
8:15 PM 46.4 °F 42.9 °F 37.4 °F 71% 29.90 in 10.0 mi West 6.9 mph - N/A   Clear
8:35 PM 48.2 °F - 37.4 °F 66% 29.91 in 10.0 mi West 4.6 mph - N/A   Clear
8:55 PM 46.4 °F 45.2 °F 37.4 °F 71% 29.91 in 10.0 mi West 3.5 mph - N/A   Clear
9:15 PM 44.6 °F - 37.4 °F 76% 29.92 in 10.0 mi Calm Calm - N/A   Clear
9:35 PM 44.6 °F - 37.4 °F 76% 29.93 in 10.0 mi Calm Calm - N/A   Clear
9:55 PM 42.8 °F 38.0 °F 35.6 °F 76% 29.93 in 10.0 mi West 8.1 mph - N/A   Clear
10:15 PM 42.8 °F - 37.4 °F 81% 29.95 in 10.0 mi Calm Calm - N/A   Clear
10:35 PM 42.8 °F 39.3 °F 37.4 °F 81% 29.95 in 10.0 mi West 5.8 mph - N/A   Clear
10:55 PM 42.8 °F 39.3 °F 37.4 °F 81% 29.95 in 10.0 mi West 5.8 mph - N/A   Clear
11:15 PM 44.6 °F 38.8 °F 37.4 °F 76% 29.95 in 10.0 mi West 11.5 mph - N/A   Clear
11:35 PM 44.6 °F 39.7 °F 37.4 °F 76% 29.95 in 10.0 mi West 9.2 mph - N/A   Clear
11:55 PM 44.6 °F 39.7 °F 37.4 °F 76% 29.95 in 10.0 mi WNW 9.2 mph - N/A   Clear